Wind_Speed
19 20 22 21 20 19 20 19 20 22 23 24 25 22 20 21 22 20 18 18 19 19 20 19 19 19 19 18 16 16 17 17 17 17 16 16 16 16 15 15 16 17
19 19 20 20 18 19 20 20 21 21 22 25 25 21 20 21 22 22 20 19 19 18 19 18 18 19 19 18 17 16 17 17 17 16 15 16 16 16 16 16 16 17
20 19 19 20 19 19 21 22 22 21 22 25 23 19 19 21 21 22 23 22 20 19 18 18 19 19 19 20 18 18 18 17 16 16 15 16 17 17 17 17 17 16
21 21 21 21 21 21 21 21 22 22 23 25 23 19 19 20 20 21 22 23 22 21 21 20 19 19 20 20 19 18 18 17 16 17 17 17 17 17 18 18 17 16
23 23 23 22 22 22 21 20 20 22 22 22 20 20 20 20 18 18 21 23 23 22 22 21 20 19 20 20 18 18 18 17 18 19 18 18 18 18 18 18 17 16
25 26 23 22 22 21 22 21 20 19 19 18 17 18 19 19 18 19 21 23 23 23 22 21 19 19 19 19 19 18 19 19 19 19 19 19 19 19 19 18 17 16
25 25 22 21 21 21 22 21 19 18 17 16 16 17 19 20 21 23 24 24 23 23 22 21 19 19 19 19 19 20 20 19 19 20 20 21 20 20 19 18 17 16
21 21 21 20 20 21 22 21 20 19 19 17 16 16 17 20 23 27 27 25 23 22 22 22 20 20 20 20 20 20 20 20 20 21 21 21 21 20 19 18 18 17
19 20 21 20 20 21 23 23 22 21 19 18 16 16 16 19 24 28 28 27 25 23 24 24 22 21 21 21 21 21 20 21 21 22 22 22 21 20 19 19 19 17
20 21 22 22 23 25 26 26 24 21 19 18 17 16 16 19 22 26 28 28 28 27 26 24 23 22 22 21 21 21 21 21 22 22 23 22 21 20 20 20 20 18
20 21 22 24 26 28 28 27 25 24 22 19 18 17 17 18 20 24 27 28 29 29 27 24 24 23 21 20 20 20 21 21 22 21 22 22 22 21 21 20 20 19
20 21 23 25 27 28 26 25 25 25 23 20 19 19 17 18 20 23 27 29 30 31 27 24 24 22 20 20 20 20 21 21 20 19 19 20 21 21 21 20 19 19
21 21 22 24 26 26 24 24 24 24 23 22 22 21 18 19 21 23 27 29 31 32 29 26 24 22 20 20 21 21 21 19 19 18 17 18 19 19 19 18 18 19
21 22 23 25 26 26 25 25 25 25 24 23 22 21 20 21 22 23 26 30 33 32 30 27 25 23 21 21 22 21 20 19 18 17 17 17 18 18 18 18 19 20
21 22 24 25 27 28 28 28 27 27 27 26 24 23 22 23 24 24 25 31 34 33 31 28 24 23 22 21 21 20 19 18 18 17 17 18 18 18 19 19 19 20
21 22 23 25 27 28 29 30 30 30 29 27 25 23 22 24 26 25 25 30 35 34 32 30 25 23 22 21 21 20 19 18 18 18 18 18 19 19 18 19 19 19
22 22 24 25 27 28 29 29 30 30 30 28 26 24 23 24 27 27 27 31 34 35 34 32 27 24 23 21 20 20 19 19 19 19 19 19 19 18 18 19 19 20
22 23 24 25 27 28 28 27 28 29 30 29 27 26 25 25 27 28 29 32 34 35 37 35 30 25 23 21 21 20 20 20 20 19 19 18 18 18 18 19 19 20
23 23 24 25 27 28 27 26 25 25 27 27 27 28 28 27 27 28 30 33 35 36 38 38 33 27 23 22 22 22 21 20 20 19 19 18 17 17 17 18 19 19
25 24 24 25 26 27 27 24 23 23 24 26 27 28 28 27 27 28 31 34 36 36 38 39 34 28 24 23 23 23 22 21 20 19 19 18 17 17 16 17 18 18
26 26 25 24 24 25 24 21 20 22 23 24 25 26 26 27 28 30 32 34 36 38 39 39 35 29 25 24 23 23 22 21 20 19 19 18 18 16 16 16 16 17
27 27 25 24 24 23 22 19 18 20 22 23 23 24 26 27 29 31 32 34 36 39 41 39 35 31 27 25 24 23 23 22 21 20 19 19 18 16 15 15 15 16
29 27 25 24 23 23 23 20 18 19 21 21 21 22 25 27 30 32 33 35 37 39 41 39 35 31 28 25 24 24 24 23 22 20 20 19 18 16 15 15 15 15
29 27 25 23 21 22 23 21 18 18 19 21 22 25 26 28 32 35 34 35 38 39 38 37 34 32 29 27 25 26 25 24 23 22 20 19 18 17 16 16 16 16
26 26 26 25 22 21 22 20 17 16 17 19 23 27 29 30 33 38 37 36 38 39 37 35 34 33 31 28 27 27 27 25 24 23 22 20 19 18 17 17 17 18
23 24 25 26 24 22 22 21 17 13 13 17 23 30 35 34 34 37 38 37 39 40 38 36 35 34 32 30 30 29 29 27 25 24 23 22 20 20 19 20 20 20
Wind_Direction
233 239 244 242 243 246 243 237 238 239 238 245 249 239 230 232 229 223 220 220 222 225 226 230 234 234 234 230 222 220 220 219 219 219 220 219 218 219 223 227 230 232
234 239 249 253 253 253 253 249 247 248 246 249 254 249 241 242 238 227 216 211 216 224 225 227 228 225 227 228 223 219 218 216 216 217 219 220 218 218 223 229 231 231
232 232 242 252 254 255 260 260 259 259 256 255 260 263 257 255 251 237 220 210 211 218 222 223 223 222 222 220 217 216 215 212 214 217 219 221 221 221 225 230 232 231
229 229 236 243 247 253 260 265 271 275 268 260 257 259 258 256 255 245 229 218 212 210 214 218 219 222 223 219 214 215 214 212 214 219 221 222 223 225 228 232 234 234
227 229 236 244 250 258 261 266 277 284 285 277 263 255 254 252 249 243 234 228 222 214 210 212 217 221 221 219 219 219 218 216 216 219 222 223 225 227 230 234 237 239
225 227 237 248 254 257 263 271 281 288 294 293 278 265 264 261 251 240 234 232 231 227 217 210 212 218 219 219 222 223 221 219 219 220 222 225 228 229 232 236 238 240
229 231 241 251 253 256 263 272 282 288 288 285 277 268 265 261 250 238 232 227 228 231 228 217 212 216 221 222 223 225 224 223 224 224 225 227 229 231 234 236 239 241
237 243 251 254 255 258 263 268 274 280 282 280 276 268 260 255 247 238 230 223 221 226 227 223 217 217 223 226 227 229 229 230 231 230 230 231 233 234 235 236 238 241
247 252 257 258 260 261 265 268 267 269 277 279 276 270 260 251 246 239 230 222 219 219 221 221 219 219 223 227 231 233 234 236 237 236 235 235 234 235 235 236 238 239
259 259 260 262 264 265 266 268 265 265 273 275 272 271 263 251 245 238 231 225 220 215 215 217 218 220 223 228 233 236 236 237 236 235 234 233 232 231 232 234 235 236
270 266 266 266 267 267 267 266 264 262 264 262 260 260 257 251 244 234 231 230 223 215 211 213 220 223 225 230 234 234 234 234 233 232 229 228 227 228 229 231 232 233
276 271 269 268 268 269 271 270 267 266 269 270 266 258 249 246 243 235 233 230 224 217 210 211 220 225 225 228 230 230 230 230 229 227 223 223 223 224 227 230 232 233
283 278 275 272 271 272 273 274 273 274 277 279 276 267 252 243 240 237 233 227 222 218 210 208 218 223 223 224 224 225 226 225 225 223 222 223 223 225 229 232 235 236
288 283 279 276 275 274 272 272 273 274 274 274 274 272 260 247 240 238 234 226 221 217 209 207 216 220 219 220 221 222 223 223 224 224 225 227 228 230 232 232 235 238
293 288 282 278 275 272 270 269 269 271 272 272 271 270 265 256 244 237 233 227 221 217 210 206 213 218 217 218 219 220 222 224 225 225 227 229 231 233 235 234 237 240
299 294 289 283 277 272 269 268 267 266 266 268 268 263 260 256 246 238 234 227 220 217 212 206 210 216 215 215 217 218 222 225 227 228 229 230 232 234 237 239 241 243
302 300 296 291 285 279 273 269 267 265 262 260 260 256 253 251 246 241 237 228 220 216 213 207 207 213 214 212 216 219 222 225 228 230 231 232 233 234 237 240 240 241
302 302 300 298 294 289 282 274 268 264 262 258 255 251 248 246 244 241 235 228 220 216 214 209 205 210 214 212 215 218 221 224 227 229 231 232 234 236 238 240 241 241
302 303 302 302 300 297 292 284 272 263 260 257 252 247 242 238 238 238 233 227 221 217 216 211 205 206 211 211 212 215 218 223 226 228 230 232 234 237 239 242 244 245
305 306 305 304 303 299 296 290 280 266 257 253 248 244 240 235 233 234 230 227 222 218 216 211 205 204 208 208 210 213 217 222 224 225 227 229 231 235 238 242 246 248
305 308 308 306 303 299 294 288 279 267 258 252 247 242 241 236 229 228 227 226 222 218 214 210 206 204 206 209 211 214 216 219 222 222 223 225 228 232 236 240 245 249
304 308 310 308 305 299 290 281 274 265 258 252 245 241 242 236 225 220 223 223 221 218 216 212 209 207 209 212 214 216 217 217 220 221 221 223 226 228 232 238 243 248
305 307 310 311 310 306 298 287 274 266 256 247 244 240 237 232 222 217 220 221 218 218 216 214 211 210 211 214 217 217 217 216 217 219 220 222 225 226 228 232 238 244
309 310 313 314 314 315 312 301 285 272 255 243 247 244 233 226 220 215 218 219 216 215 213 210 211 212 212 215 217 216 215 215 215 217 219 221 224 226 227 229 234 240
313 316 320 322 321 323 323 316 302 282 256 243 248 241 229 224 219 214 215 215 210 209 209 205 208 212 214 216 219 219 218 217 218 219 220 223 225 229 232 232 234 239
315 319 325 331 333 332 332 329 320 301 277 260 247 230 220 219 216 213 215 212 207 207 207 205 206 209 213 217 221 222 220 219 220 223 224 226 227 230 234 236 235 238
Height
3108 3108 3109 3110 3110 3110 3109 3108 3107 3108 3109 3110 3111 3113 3114 3115 3116 3118 3121 3123 3125 3127 3130 3132 3134 3136 3137 3138 3139 3140 3141 3142 3143 3144 3145 3147 3148 3149 3150 3151 3152 3153
3107 3109 3110 3111 3110 3109 3108 3107 3106 3106 3107 3108 3109 3112 3113 3114 3116 3117 3118 3120 3123 3125 3128 3130 3132 3134 3135 3136 3137 3138 3139 3140 3142 3143 3144 3145 3146 3148 3149 3150 3151 3151
3106 3107 3108 3109 3109 3108 3107 3107 3106 3107 3107 3107 3108 3111 3113 3114 3116 3117 3117 3118 3119 3123 3126 3128 3130 3131 3133 3134 3135 3136 3138 3139 3140 3141 3142 3144 3145 3146 3147 3148 3149 3149
3105 3105 3105 3105 3105 3105 3106 3106 3107 3107 3108 3107 3107 3108 3109 3111 3114 3116 3117 3117 3117 3119 3122 3125 3128 3129 3131 3132 3133 3134 3136 3137 3138 3140 3141 3142 3143 3144 3145 3146 3147 3147
3103 3103 3102 3102 3103 3104 3105 3105 3105 3106 3107 3107 3107 3106 3106 3108 3111 3114 3116 3117 3118 3118 3119 3122 3125 3127 3129 3131 3131 3133 3134 3135 3136 3138 3139 3140 3141 3142 3143 3144 3145 3145
3100 3100 3100 3100 3101 3103 3103 3103 3104 3105 3105 3105 3105 3106 3106 3107 3109 3111 3113 3115 3118 3119 3119 3120 3123 3126 3127 3128 3129 3131 3132 3133 3134 3136 3137 3139 3139 3140 3141 3142 3143 3143
3098 3098 3098 3099 3101 3102 3101 3102 3103 3103 3103 3103 3103 3104 3105 3105 3107 3109 3110 3112 3115 3118 3119 3119 3121 3123 3125 3126 3128 3129 3130 3131 3132 3134 3135 3136 3137 3138 3139 3140 3141 3141
3097 3097 3098 3100 3101 3100 3099 3101 3102 3102 3102 3101 3101 3102 3102 3103 3105 3106 3108 3110 3112 3115 3117 3118 3119 3121 3123 3124 3126 3127 3128 3129 3130 3132 3133 3134 3135 3136 3137 3138 3139 3140
3096 3096 3097 3098 3099 3098 3098 3098 3099 3099 3100 3100 3099 3099 3100 3101 3102 3104 3106 3108 3109 3111 3114 3116 3118 3119 3120 3122 3123 3124 3125 3126 3128 3129 3131 3132 3133 3134 3136 3136 3137 3138
3094 3094 3095 3096 3095 3095 3095 3096 3096 3096 3097 3097 3097 3097 3097 3098 3100 3101 3104 3106 3107 3109 3110 3113 3115 3116 3117 3119 3120 3122 3123 3124 3125 3126 3128 3129 3131 3132 3133 3134 3135 3136
3092 3092 3093 3093 3092 3092 3092 3093 3093 3093 3093 3094 3095 3095 3096 3097 3098 3099 3101 3103 3105 3107 3108 3111 3112 3113 3114 3116 3118 3119 3120 3121 3122 3124 3125 3127 3128 3130 3131 3132 3133 3134
3089 3089 3089 3089 3089 3089 3090 3090 3090 3090 3091 3093 3094 3094 3094 3095 3096 3097 3099 3101 3103 3105 3106 3108 3110 3111 3112 3114 3115 3116 3117 3119 3120 3122 3123 3124 3126 3127 3129 3130 3131 3131
3087 3087 3086 3086 3085 3086 3088 3088 3088 3089 3089 3091 3092 3092 3093 3093 3094 3096 3097 3098 3100 3102 3104 3106 3107 3108 3109 3111 3113 3114 3115 3117 3118 3120 3121 3122 3124 3125 3126 3128 3128 3129
3084 3084 3083 3082 3082 3083 3084 3085 3085 3086 3086 3088 3089 3090 3091 3092 3092 3093 3095 3096 3098 3100 3101 3103 3104 3105 3107 3109 3110 3112 3113 3115 3116 3117 3119 3120 3122 3123 3124 3125 3126 3127
3082 3081 3080 3080 3079 3079 3080 3082 3083 3083 3083 3084 3086 3087 3088 3089 3089 3090 3091 3093 3095 3097 3099 3100 3101 3103 3105 3107 3108 3110 3112 3113 3114 3115 3117 3118 3119 3120 3122 3123 3124 3125
3079 3079 3078 3076 3076 3076 3077 3078 3079 3079 3079 3080 3081 3083 3084 3085 3086 3086 3088 3089 3091 3094 3096 3097 3099 3101 3103 3105 3106 3108 3109 3111 3112 3113 3114 3115 3117 3118 3119 3121 3122 3122
3077 3076 3075 3073 3072 3072 3073 3074 3074 3074 3075 3076 3077 3078 3079 3081 3082 3083 3084 3085 3088 3091 3093 3095 3097 3099 3101 3102 3104 3106 3107 3108 3110 3111 3112 3113 3115 3116 3117 3118 3119 3120
3076 3074 3073 3071 3069 3069 3069 3070 3070 3070 3071 3072 3073 3074 3075 3076 3078 3080 3081 3082 3084 3087 3090 3091 3094 3096 3098 3100 3102 3104 3105 3106 3107 3109 3110 3111 3112 3113 3115 3116 3116 3117
3073 3072 3071 3069 3067 3065 3065 3066 3067 3067 3067 3068 3069 3070 3070 3072 3074 3076 3077 3078 3081 3084 3086 3088 3091 3093 3096 3098 3100 3101 3103 3104 3105 3107 3108 3109 3110 3111 3113 3114 3114 3115
3071 3069 3069 3067 3065 3063 3061 3061 3062 3063 3063 3064 3064 3065 3066 3069 3071 3073 3074 3075 3078 3081 3084 3086 3088 3090 3093 3095 3097 3098 3100 3102 3103 3105 3106 3107 3108 3109 3111 3112 3112 3113
3069 3067 3066 3065 3063 3061 3059 3058 3058 3058 3059 3059 3060 3062 3063 3065 3068 3069 3071 3073 3075 3078 3080 3082 3085 3087 3090 3092 3094 3096 3097 3099 3101 3102 3104 3105 3106 3107 3108 3109 3110 3111
3066 3064 3063 3062 3060 3059 3057 3055 3054 3054 3054 3055 3057 3059 3060 3061 3063 3066 3067 3070 3072 3075 3077 3079 3082 3084 3087 3089 3091 3093 3095 3097 3098 3100 3101 3103 3104 3105 3106 3107 3108 3109
3063 3062 3060 3059 3057 3056 3054 3052 3051 3051 3050 3051 3052 3054 3056 3057 3059 3061 3063 3066 3068 3071 3074 3077 3079 3082 3084 3087 3089 3091 3093 3094 3096 3097 3099 3100 3101 3103 3104 3105 3105 3106
3060 3059 3058 3057 3055 3053 3051 3049 3047 3047 3046 3047 3048 3050 3052 3054 3055 3057 3059 3062 3065 3067 3070 3074 3077 3079 3081 3084 3086 3089 3091 3092 3093 3095 3096 3097 3099 3100 3101 3102 3103 3104
3058 3056 3055 3054 3053 3051 3048 3046 3044 3043 3043 3043 3044 3046 3049 3050 3052 3054 3056 3058 3062 3065 3067 3070 3074 3076 3079 3082 3084 3086 3088 3089 3090 3092 3093 3094 3096 3097 3098 3099 3100 3101
3057 3055 3053 3051 3050 3049 3046 3044 3041 3040 3040 3040 3042 3044 3046 3048 3050 3052 3054 3056 3059 3062 3065 3068 3070 3073 3076 3079 3081 3083 3085 3086 3088 3089 3090 3091 3093 3094 3095 3096 3097 3098